Weather History for KQIR - September, 2013

Change the Weather History Date:

Wednesday, September 25, 2013

  Actual Average Record
Temperature  
Mean Temperature 90 °F -  
Max Temperature 100 °F - - ()
Min Temperature 80 °F - - ()
Cooling Degree Days 25    
Growing Degree Days 40 (Base 50)    
Moisture  
Dew Point 61 °F    
Average Humidity 38    
Maximum Humidity 67    
Minimum Humidity 21    
Precipitation  
Precipitation 0.00 in - - ()
Sea Level Pressure  
Sea Level Pressure 29.71 in    
Wind  
Wind Speed 18 mph ()    
Max Wind Speed 31 mph    
Max Gust Speed 38 mph    
Visibility 5.3 miles    
Events      
T = Trace of Precipitation, MM = Missing Value Source: Averaged Metar Reports

Daily Weather History Graph

Daily Weather History Graph

Search for Another Location

Airport or City:

Trip Planner

Search our weather history database for the weather conditions in past years. The results will help you decide how hot, cold, wet, or windy it might be!

Date:

Astronomy

Sep. 25, 2013 Rise Set
Actual Time 5:24 AM AST 5:27 PM AST
Civil Twilight 5:01 AM AST 5:50 PM AST
Nautical Twilight 4:35 AM AST 6:17 PM AST
Astronomical Twilight 4:08 AM AST 6:44 PM AST
Moon 9:45 PM AST (9/25) 10:39 AM AST (9/25)
Length of Visible Light 12h 49m
Length of Day
12h 03m
Waning Gibbous, 67% of the Moon is Illuminated
Sep 25
Waning Gibbous
Sep 27
Last Quarter
Oct 5
New
Oct 12
First Quarter
Oct 19
Full

Hourly Weather History & Observations

Time (AST) Temp. Heat Index Dew Point Humidity Pressure Visibility Wind Dir Wind Speed Gust Speed Precip Events Conditions
12:55 AM 82.4 °F 84.4 °F 65.7 °F 57% 29.69 in 6.2 mi WNW 11.5 mph - N/A   Clear
1:55 AM 82.8 °F 85.1 °F 66.4 °F 58% 29.69 in 6.2 mi WNW 11.5 mph - N/A   Clear
2:55 AM 82.0 °F 84.3 °F 66.4 °F 59% 29.69 in 6.2 mi WNW 9.2 mph - N/A   Clear
3:55 AM 81.1 °F 83.7 °F 67.3 °F 63% 29.69 in 6.2 mi WNW 13.8 mph - N/A   Clear
4:55 AM 80.2 °F 83.0 °F 68.2 °F 67% 29.70 in 6.2 mi NW 11.5 mph - N/A   Clear
5:55 AM 80.2 °F 83.0 °F 68.2 °F 67% 29.71 in 6.2 mi WNW 12.7 mph - N/A   Clear
6:55 AM 84.6 °F 87.9 °F 68.4 °F 58% 29.72 in 6.2 mi NW 13.8 mph - N/A   Clear
7:55 AM 89.8 °F 92.9 °F 67.3 °F 47% 29.73 in 6.2 mi NNW 18.4 mph - N/A   Clear
8:55 AM 95.4 °F 94.2 °F 57.4 °F 28% 29.73 in 6.2 mi NNW 24.2 mph - N/A   Clear
9:08 AM 95.0 °F 93.7 °F 57.2 °F 28% 29.73 in - NNW 26.5 mph 32.2 mph N/A   Haze
9:16 AM 96.8 °F 95.8 °F 57.2 °F 27% 29.73 in 2.5 mi NNW 21.9 mph 31.1 mph N/A   Haze
9:17 AM 96.8 °F 95.8 °F 57.2 °F 27% 29.73 in - NNW 24.2 mph 31.1 mph N/A   Haze
9:55 AM 97.2 °F 95.6 °F 55.9 °F 25% 29.73 in 3.7 mi NNW 25.3 mph - N/A   Clear
10:01 AM 96.8 °F 95.1 °F 55.4 °F 25% 29.73 in 3.7 mi North 24.2 mph - N/A   Haze
10:29 AM 98.6 °F 97.6 °F 57.2 °F 25% 29.73 in - NNW 31.1 mph 35.7 mph N/A   Widespread Dust
10:36 AM 98.6 °F 98.5 °F 59.0 °F 27% 29.73 in - NNW 29.9 mph 35.7 mph N/A   Widespread Dust
10:39 AM 98.6 °F 98.5 °F 59.0 °F 27% 29.73 in - NNW 27.6 mph 35.7 mph N/A   Widespread Dust
10:45 AM 98.6 °F 98.5 °F 59.0 °F 27% 29.73 in 3.7 mi North 20.7 mph 35.7 mph N/A   Widespread Dust
10:55 AM 98.2 °F 97.9 °F 58.8 °F 27% 29.72 in 5.6 mi North 25.3 mph 32.2 mph N/A   Haze
11:55 AM 99.5 °F 97.6 °F 54.7 °F 22% 29.70 in 5.6 mi NNW 26.5 mph - N/A   Haze
12:18 PM 100.4 °F 98.4 °F 53.6 °F 21% 29.68 in - North 28.8 mph 38.0 mph N/A   Widespread Dust
12:52 PM 100.4 °F 98.8 °F 55.4 °F 22% 29.68 in 3.7 mi North 27.6 mph 33.4 mph N/A   Widespread Dust
12:55 PM 99.7 °F 97.8 °F 55.0 °F 22% 29.68 in 5.0 mi NNW 27.6 mph 34.5 mph N/A   Widespread Dust
1:50 PM 98.6 °F 98.5 °F 59.0 °F 27% 29.67 in 2.5 mi NNW 29.9 mph 34.5 mph N/A   Widespread Dust
1:51 PM 98.6 °F 98.5 °F 59.0 °F 27% 29.67 in - NNW 28.8 mph 34.5 mph N/A   Widespread Dust
1:55 PM 98.6 °F 98.0 °F 58.3 °F 26% 29.67 in - NNW 28.8 mph 38.0 mph N/A   Widespread Dust
2:48 PM 96.8 °F 97.1 °F 60.8 °F 30% 29.67 in 3.7 mi NNW 28.8 mph 34.5 mph N/A   Haze
2:49 PM 96.8 °F 97.1 °F 60.8 °F 30% 29.67 in 3.1 mi NNW 27.6 mph 34.5 mph N/A   Widespread Dust
2:55 PM 97.0 °F 97.4 °F 61.0 °F 30% 29.66 in - NNW 28.8 mph 34.5 mph N/A   Widespread Dust
3:55 PM 95.2 °F 93.9 °F 57.6 °F 28% 29.67 in - NNW 28.8 mph - N/A   Widespread Dust
4:55 PM 92.3 °F 92.7 °F 61.7 °F 36% 29.69 in 6.2 mi NNW 23.0 mph - N/A   Clear
5:55 PM 89.2 °F 89.9 °F 63.0 °F 41% 29.70 in 6.2 mi NNW 25.3 mph 31.1 mph N/A   Clear
6:55 PM 87.8 °F 89.7 °F 65.3 °F 47% 29.72 in 6.2 mi NNW 23.0 mph - N/A   Clear
7:55 PM 86.9 °F 89.3 °F 66.0 °F 50% 29.72 in 6.2 mi NNW 23.0 mph - N/A   Clear
8:55 PM 86.0 °F 88.2 °F 66.2 °F 51% 29.73 in 6.2 mi NNW 20.7 mph - N/A   Clear
9:55 PM 85.5 °F 87.9 °F 66.7 °F 53% 29.73 in 6.2 mi NNW 17.3 mph - N/A   Clear
10:55 PM 84.9 °F 87.9 °F 67.8 °F 56% 29.73 in 6.2 mi NW 18.4 mph - N/A   Clear
11:55 PM 84.7 °F 87.9 °F 67.8 °F 57% 29.72 in 6.2 mi NW 15.0 mph - N/A   Clear